GW4137 Weather Reports


time (UTC)temp
F
wind
direction
speed
knots
gust
knots
rain 1hr
in
rain 24hr
in
rain mn
in
humidity
%
barometer
mb
20260506221557 69 236 0.0 6.1 0.00 0.00 0.00 21 1007.6
20260506220052 69 266 5.2 10.4 0.00 0.00 0.00 20 1008.0
20260506214555 68 293 1.7 7.8 0.00 0.00 0.00 21 1008.4
20260506213054 68 287 6.1 11.3 0.00 0.00 0.00 21 1008.5
20260506211608 66 0 0.9 8.7 0.00 0.00 0.00 22 1008.8
20260506210054 66 11 5.2 17.4 0.00 0.00 0.00 22 1009.1
20260506204556 65 302 4.3 12.2 0.00 0.00 0.00 23 1009.4
20260506203054 65 312 5.2 11.3 0.00 0.00 0.00 22 1009.6
20260506201554 63 254 1.7 12.2 0.00 0.00 0.00 24 1009.8
20260506200055 64 250 7.8 18.2 0.00 0.00 0.00 23 1010.0
20260506194555 64 250 8.7 15.6 0.00 0.00 0.00 23 1010.4
20260506193055 61 0 7.8 13.9 0.00 0.00 0.00 24 1010.5
20260506191554 61 209 2.6 10.4 0.00 0.00 0.00 25 1010.9
20260506190055 60 211 7.8 22.6 0.00 0.00 0.00 24 1011.3
20260506184604 59 294 5.2 15.6 0.00 0.00 0.00 26 1011.5
20260506183056 58 257 7.8 14.8 0.00 0.00 0.00 26 1011.8
20260506181556 56 194 4.3 15.6 0.00 0.00 0.00 26 1012.1
20260506180057 55 179 4.3 12.2 0.00 0.00 0.00 26 1012.3
20260506174552 55 221 7.0 14.8 0.00 0.00 0.00 27 1012.7
20260506173104 54 155 4.3 13.9 0.00 0.00 0.00 29 1012.9
20260506171602 52 205 6.1 13.0 0.00 0.00 0.00 32 1013.2
20260506170103 51 183 7.0 11.3 0.00 0.00 0.00 35 1013.6
20260506164618 51 207 5.2 13.0 0.00 0.00 0.00 31 1013.7
20260506163107 50 213 7.0 12.2 0.00 0.00 0.00 37 1013.8
20260506161557 48 209 6.1 11.3 0.00 0.00 0.00 42 1014.0
20260506160111 47 180 7.0 10.4 0.00 0.00 0.00 44 1014.3
20260506154555 45 183 5.2 10.4 0.00 0.00 0.00 49 1014.6
20260506153101 43 182 5.2 9.6 0.00 0.00 0.00 52 1014.9
20260506151553 42 196 5.2 8.7 0.00 0.00 0.00 53 1015.1
20260506150053 41 205 3.5 7.0 0.00 0.00 0.00 56 1015.2
20260506144552 39 207 2.6 8.7 0.00 0.00 0.00 60 1015.2
20260506143056 38 352 3.5 8.7 0.00 0.00 0.00 60 1015.4
20260506141609 37 19 1.7 6.1 0.00 0.00 0.00 61 1015.6
20260506140055 35 0 0.9 3.5 0.00 0.00 0.00 62 1015.6
20260506134554 33 360 0.0 2.6 0.00 0.00 0.00 62 1015.7
20260506133105 31 0 0.0 0.0 0.00 0.00 0.00 62 1015.8
20260506131555 27 0 0.0 0.0 0.00 0.00 0.00 64 1015.9
20260506130056 24 0 0.0 0.0 0.00 0.00 0.00 66 1015.9
20260506124550 22 0 0.0 0.9 0.00 0.00 0.00 68 1015.9
20260506123053 20 0 0.0 0.0 0.00 0.00 0.00 70 1016.0
20260506121614 19 360 0.9 3.5 0.00 0.00 0.00 69 1016.0
20260506120120 19 360 2.6 3.5 0.00 0.00 0.00 69 1016.2
20260506114557 19 360 2.6 3.5 0.00 0.00 0.00 69 1016.2
20260506113109 19 0 0.0 1.7 0.00 0.00 0.00 68 1016.3
20260506111552 19 0 0.0 3.5 0.00 0.00 0.00 68 1016.5
20260506110058 18 360 0.0 1.7 0.00 0.00 0.00 69 1016.8
20260506104553 19 0 0.0 2.6 0.00 0.00 0.00 67 1017.0
20260506103056 20 360 2.6 4.3 0.00 0.00 0.00 66 1017.0
20260506101555 19 360 1.7 3.5 0.00 0.00 0.00 67 1017.1
20260506100058 20 360 2.6 3.5 0.00 0.00 0.00 66 1017.4
20260506094557 20 360 1.7 3.5 0.00 0.00 0.00 66 1017.4
20260506093056 20 360 0.9 3.5 0.00 0.00 0.00 66 1017.6
20260506091554 21 360 1.7 2.6 0.00 0.00 0.00 66 1017.7
20260506090052 21 360 0.0 1.7 0.00 0.00 0.00 66 1017.8
20260506084550 22 0 0.0 0.0 0.00 0.00 0.00 65 1017.9
20260506083051 22 0 0.0 2.6 0.00 0.00 0.00 64 1018.0
20260506081553 23 0 0.0 0.0 0.00 0.00 0.00 64 1018.2
20260506073100 24 0 0.0 2.6 0.00 0.00 0.00 61 1018.5
20260506071555 26 0 0.0 2.6 0.00 0.00 0.00 59 1018.5
20260506070114 27 16 1.7 3.5 0.00 0.00 0.00 59 1018.6
20260506061602 28 16 1.7 2.6 0.00 0.00 0.00 56 1018.5
20260506044558 30 16 2.6 3.5 0.00 0.00 0.00 50 1018.7
20260506043051 32 16 0.9 2.6 0.00 0.00 0.00 49 1018.7
20260506041556 30 16 0.0 0.0 0.00 0.00 0.00 50 1018.8
20260506040059 32 0 0.0 0.0 0.00 0.00 0.00 48 1018.8
20260506034555 33 0 0.9 3.5 0.00 0.00 0.00 47 1018.9
20260506033052 34 16 0.9 2.6 0.00 0.00 0.00 44 1018.8
20260506031601 37 16 1.7 4.3 0.00 0.00 0.00 41 1018.7
20260506030105 39 16 3.5 7.0 0.00 0.00 0.00 40 1018.6
20260506024546 41 13 6.1 7.8 0.00 0.00 0.00 38 1018.5
20260506023055 43 5 5.2 11.3 0.00 0.00 0.00 37 1018.4
20260506021551 44 5 8.7 13.0 0.00 0.00 0.00 36 1018.4
20260506020050 45 5 8.7 14.8 0.00 0.00 0.00 35 1018.3
20260506014600 46 14 10.4 16.5 0.00 0.00 0.00 33 1018.3
20260506013051 46 352 11.3 15.6 0.00 0.00 0.00 33 1018.2
20260506011555 47 352 13.9 18.2 0.00 0.00 0.00 31 1018.1
20260506010059 47 352 13.9 19.1 0.00 0.00 0.00 30 1018.0
20260506004623 48 352 13.0 18.2 0.00 0.00 0.00 29 1018.0
20260506003053 48 351 13.0 20.9 0.00 0.00 0.00 30 1018.0
20260506001550 48 24 11.3 20.9 0.00 0.00 0.00 31 1018.0
20260506000054 47 352 13.0 20.9 0.00 0.00 0.00 32 1018.1
20260505234613 49 340 12.2 22.6 0.00 0.00 0.00 32 1018.1
20260505233055 47 352 15.6 20.0 0.00 0.00 0.00 33 1018.2
20260505231552 48 9 13.9 18.2 0.00 0.00 0.00 32 1018.2
20260505230056 49 329 14.8 22.6 0.00 0.00 0.00 29 1018.1
20260505224601 49 9 13.9 23.5 0.00 0.00 0.00 31 1018.1
20260505223103 49 5 13.9 21.7 0.00 0.00 0.00 29 1018.0